Regional Weather Roundup
Issued by NWS

Home | Current Version | Previous Version | Text Only | Print | Product List | Glossary On
Versions: 1 2 3 4 5 6 7 8 9 10 11 12 13 14 15 16 17 18 19 20 21 22 23 24 25 26 27 28 29 30 31 32 33 34 35 36 37 38 39 40 41 42 43 44 45 46 47 48 49 50
060
ASUS44 KLIX 212310
RWRLA
LOUISIANA WEATHER ROUNDUP
NATIONAL WEATHER SERVICE NEW ORLEANS LA
500 PM CST FRI NOV 21 2014

NOTE: "FAIR" INDICATES FEW OR NO CLOUDS BELOW 12,000 FEET WITH NO
      SIGNIFICANT WEATHER AND/OR OBSTRUCTIONS TO VISIBILITY.
      SKY/WX - SKY CONDITION AND SIGNIFICANT WEATHER.
      TMP - AIR TEMPERATURE.    DP   - DEWPOINT TEMPERATURE.
      RH  - RELATIVE HUMIDITY.  PRES - PRESSURE.
      HX  - HEAT INDEX.         WCI  - WIND CHILL INDEX.

*  THESE STATIONS ARE NOT NWS OR FAA STATIONS AND ARE NOT UNDER
   NWS QUALITY CONTROL.

LAZ040-048-061>063-065-066-069-220000-
SOUTHEAST LOUISIANA

CITY           SKY/WX    TMP DP  RH WIND       PRES   REMARKS
N.O. AUDUBON     N/A     64  56  73 MISG        N/A
N.O. INTL ARPT PTCLDY    63  53  70 E10       30.26R
N.O. LAKEFRONT CLEAR     61  53  75 E10       30.27R
N.O. DOWNTOWN* FAIR      63  52  67 NE5       30.27S
SLIDELL        CLEAR     63  50  62 E7        30.27R
BATON ROUGE    PTCLDY    65  49  56 E13       30.24R
BOOTHVILLE     CLEAR     64  52  64 E10       30.26R
BELLE CHASSE   PTCLDY    62  52  69 NE9       30.26R
BOGALUSA*        N/A     66  40  39 S7        30.29R
NEW ROADS*     FAIR      65  48  54 E8        30.23R
GONZALES*      FAIR      65  54  68 E6        30.24S
HAMMOND*       CLEAR     64  50  59 SE9       30.28S
HOUMA*         CLEAR     64  50  59 E12       30.24R
PORT FOURCHON* CLEAR     66  54  63 E13G18    30.26R

$$

LAZ041-044-053-054-220000-
SOUTHWEST LOUISIANA

CITY           SKY/WX    TMP DP  RH WIND       PRES   REMARKS
LAKE CHARLES   PTCLDY    65  53  65 SE16      30.18R
LAFAYETTE      CLEAR     68  43  40 VRB5      30.21R
PATTERSON      CLEAR     64  48  55 SE10      30.25R
SALT POINT       N/A     66  52  60 SE8       30.21S
NEW IBERIA     CLEAR     66  43  43 SE8       30.22R
CHENAULT AIRPK NOT AVBL

$$

LAZ027-028-220000-
CENTRAL LOUISIANA

CITY           SKY/WX    TMP DP  RH WIND       PRES   REMARKS
FORT POLK      CLOUDY    64  51  62 SE5       30.18R
ALEXANDRIA INT CLOUDY    66  47  50 SE7       30.19R
ALEXANDRIA     CLOUDY    67  44  43 SE7       30.20S

$$

LAZ001-002-220000-
NORTHWEST LOUISIANA

CITY           SKY/WX    TMP DP  RH WIND       PRES   REMARKS
SHREVEPORT     MOCLDY    60  58  92 S3        30.18R
BARKSDALE AFB  CLOUDY    59  59 100 S2        30.18R
DTN SHREVEPORT CLOUDY    59  55  87 CALM      30.18R

$$

LAZ014-016-220000-
NORTHEAST LOUISIANA

CITY           SKY/WX    TMP DP  RH WIND       PRES   REMARKS
MONROE         CLOUDY    66  46  48 SE6       30.23R
TALLULAH       MOCLDY    65  46  50 SE10      30.24R

$$




USA.gov is the U.S. government's official web portal to all federal, state and local government web resources and services.